This demonstration page uses our WeatherBlox Daily Observations layout. Learn more.

Left ArrowRight Arrow

39.92423, -83.80882

Hourly Observations for November 15, 2020

Temp ( °F °C ) Dew Point ( °F °C ) Humidity (%) Winds ( mph kmh ) Pressure ( in mb ) Visibility ( mi km ) Precip ( " mm )
12:56 am 00:56 Cloudy 51 10.6 39 3.9 64 64 SSE 13 20 29.81 1010 10 16 N/A
1:56 am 01:56 Cloudy 53 11.7 38 3.3 57 57 SSE 12 19 29.75 1007 10 16 N/A
2:56 am 02:56 Partly Cloudy 57 13.9 39 3.9 51 51 S 15 24 29.68 1005 10 16 N/A
3:56 am 03:56 Mostly Cloudy 58 14.4 40 4.4 51 51 S 15 24 29.64 1004 10 16 N/A
4:56 am 04:56 Cloudy with Light Rain 55 12.8 46 7.8 72 72 S 15 24 29.60 1002 10 16 0.00 0.00
5:56 am 05:56 Cloudy with Rain 54 12.2 49 9.4 83 83 S 18 30 29.58 1002 10 16 0.00 0.00
6:56 am 06:56 Cloudy with Light Rain 54 12.2 53 11.7 97 97 SW 16 26 29.60 1002 10 16 N/A
7:56 am 07:56 Cloudy with Rain 53 11.7 53 11.7 100 100 SW 17 28 29.60 1003 5 8 N/A
8:13 am 08:13 Cloudy with Light Rain 54 12 54 12 100 100 SW 21 33 29.61 1003 6 10 N/A
8:34 am 08:34 Cloudy with Light Rain 54 12 54 12 100 100 SSW 12 19 29.59 1002 10 16 N/A
8:56 am 08:56 Cloudy with Light Rain 53 11.7 53 11.7 100 100 S 14 22 29.57 1001 10 16 N/A
9:10 am 09:10 Cloudy with Light Rain 54 12 54 12 100 100 S 12 19 29.55 1001 10 16 N/A
9:56 am 09:56 Mostly Cloudy 54 12.2 54 12.2 100 100 SSW 15 24 29.57 1001 10 16 N/A
10:14 am 10:14 Mostly Cloudy 55 13 54 12 94 94 SSW 21 33 29.56 1001 10 16 N/A
10:56 am 10:56 Cloudy 56 13.3 54 12.2 93 93 SW 20 31 29.58 1002 10 16 N/A
11:15 am 11:15 Cloudy with Nearby Thunderstorms 55 13 54 12 94 94 WSW 22 35 29.56 1001 9 14 N/A
11:30 am 11:30 Cloudy with Light Rain 52 11 50 10 94 94 WSW 36 57 29.57 1001 4 6 N/A
11:56 am 11:56 Cloudy 52 11.1 46 7.8 80 80 W 33 54 29.64 1004 10 16 N/A
12:56 pm 12:56 Partly Cloudy 49 9.4 38 3.3 66 66 W 38 61 29.69 1005 10 16 N/A
1:56 pm 13:56 Cloudy 48 8.9 37 2.8 66 66 WSW 33 54 29.73 1007 10 16 N/A
2:56 pm 14:56 Cloudy 46 7.8 37 2.8 71 71 W 36 57 29.80 1009 10 16 N/A
3:56 pm 15:56 Cloudy 45 7.2 37 2.8 74 74 WSW 24 39 29.85 1011 10 16 N/A
4:56 pm 16:56 Mostly Sunny 45 7.2 33 0.6 63 63 WSW 24 39 29.89 1012 10 16 N/A
5:56 pm 17:56 Cloudy 45 7.2 36 2.2 71 71 W 14 22 29.92 1013 10 16 N/A
6:56 pm 18:56 Cloudy 44 6.7 34 1.1 68 68 W 15 24 29.95 1014 10 16 N/A
7:56 pm 19:56 Cloudy 45 7.2 34 1.1 66 66 W 24 39 29.96 1015 10 16 N/A
8:56 pm 20:56 Cloudy 43 6.1 34 1.1 71 71 W 20 31 30.00 1016 10 16 N/A
9:56 pm 21:56 Cloudy 44 6.7 32 undefined 63 63 WSW 20 31 30.00 1016 10 16 N/A
10:56 pm 22:56 Cloudy 45 7.2 31 -0.6 58 58 WSW 24 39 29.99 1016 10 16 N/A
11:56 pm 23:56 Cloudy 44 6.7 31 -0.6 60 60 W 28 44 30.00 1016 10 16 N/A

Powered by AerisWeather